DW3499 Weather Reports


time (UTC)temp
C
wind
direction
speed
KPH
gust
KPH
rain 1hr
cm
rain 24hr
cm
rain mn
cm
humidity
%
barometer
mb
20260506042635 14 335 1.6 4.8 0.00 0.13 0.13 78 1017.5
20260506041405 14 328 3.2 8.0 0.00 0.13 0.13 78 1017.3
20260506040138 14 288 1.6 8.0 0.00 0.13 0.13 77 1017.1
20260506034908 14 297 1.6 4.8 0.00 0.13 0.13 77 1016.9
20260506034346 14 301 3.2 6.4 0.00 0.13 0.13 76 1016.9
20260506033823 15 242 1.6 6.4 0.00 0.13 0.13 76 1016.8
20260506033302 15 244 4.8 8.0 0.00 0.13 0.13 76 1016.8
20260506032739 15 269 1.6 9.7 0.00 0.13 0.13 76 1016.7
20260506032218 15 263 1.6 8.0 0.00 0.13 0.13 75 1016.5
20260506031657 15 181 1.6 9.7 0.00 0.13 0.13 75 1016.6
20260506031137 15 226 3.2 9.7 0.00 0.13 0.13 75 1016.6
20260506030618 15 260 3.2 8.0 0.00 0.13 0.13 74 1016.5
20260506025348 15 265 3.2 8.0 0.00 0.13 0.13 74 1016.4
20260506023409 15 273 1.6 8.0 0.00 0.13 0.13 73 1016.1
20260506022848 16 261 1.6 11.3 0.00 0.13 0.13 73 1016.0
20260506022325 16 270 3.2 9.7 0.00 0.13 0.13 72 1015.9
20260506021805 16 244 3.2 16.1 0.00 0.13 0.13 72 1015.9
20260506021245 16 254 6.4 12.9 0.00 0.13 0.13 72 1015.9
20260506020724 16 247 3.2 14.5 0.00 0.13 0.13 72 1016.0
20260506020203 16 254 3.2 8.0 0.00 0.13 0.13 71 1015.9
20260506015642 16 291 3.2 9.7 0.00 0.13 0.13 71 1015.9
20260506014412 16 254 3.2 11.3 0.00 0.13 0.13 71 1015.8
20260506013849 16 267 1.6 9.7 0.00 0.13 0.13 71 1015.7
20260506013330 16 218 1.6 8.0 0.00 0.13 0.13 71 1015.8
20260506012809 16 268 1.6 6.4 0.00 0.13 0.13 71 1015.8
20260506012248 16 213 1.6 8.0 0.00 0.13 0.13 71 1015.8
20260506011726 16 251 1.6 6.4 0.00 0.13 0.13 71 1015.8
20260506011203 16 288 1.6 16.1 0.00 0.13 0.13 70 1015.7
20260506010643 16 211 3.2 11.3 0.00 0.13 0.13 70 1015.7
20260506010122 16 205 3.2 8.0 0.00 0.13 0.13 70 1015.7
20260506005600 16 282 1.6 8.0 0.00 0.13 0.13 70 1015.7
20260506005037 16 305 3.2 9.7 0.00 0.13 0.13 70 1015.7
20260506003809 16 269 1.6 9.7 0.00 0.13 0.13 70 1015.6
20260506003249 16 208 3.2 9.7 0.00 0.13 0.13 70 1015.6
20260506001309 16 281 4.8 14.5 0.00 0.13 0.13 69 1015.5
20260506000040 17 248 3.2 14.5 0.00 0.13 0.13 69 1015.4
20260505235517 17 264 4.8 14.5 0.00 0.13 0.13 69 1015.4
20260505234956 17 235 6.4 12.9 0.00 0.13 0.13 69 1015.4
20260505234436 17 244 3.2 9.7 0.00 0.13 0.13 70 1015.4
20260505233915 17 290 4.8 9.7 0.00 0.13 0.13 70 1015.4
20260505233354 16 242 4.8 14.5 0.00 0.13 0.13 70 1015.5
20260505232125 17 222 4.8 12.9 0.00 0.13 0.13 69 1015.6
20260505225440 17 273 3.2 6.4 0.00 0.13 0.13 69 1015.5
20260505224917 17 283 4.8 8.0 0.00 0.13 0.13 68 1015.5
20260505224357 17 249 3.2 9.7 0.00 0.13 0.13 67 1015.5
20260505222421 18 216 1.6 9.7 0.00 0.13 0.13 65 1015.6
20260505221900 18 219 3.2 9.7 0.00 0.13 0.13 64 1015.7
20260505221339 18 336 1.6 9.7 0.00 0.13 0.13 62 1015.7
20260505220110 18 325 6.4 12.9 0.00 0.13 0.13 61 1015.6
20260505215547 18 288 1.6 11.3 0.00 0.13 0.13 62 1015.7
20260505215027 18 277 3.2 11.3 0.00 0.13 0.13 62 1015.7
20260505214507 18 252 1.6 9.7 0.00 0.13 0.13 62 1015.7
20260505213947 18 197 3.2 11.3 0.00 0.13 0.13 62 1015.8
20260505213426 18 321 4.8 11.3 0.00 0.13 0.13 62 1015.8
20260505212905 18 270 4.8 9.7 0.00 0.13 0.13 62 1015.9
20260505211635 18 275 3.2 11.3 0.00 0.13 0.13 63 1016.0
20260505205659 18 311 4.8 14.5 0.00 0.13 0.13 62 1016.0
20260505205139 18 252 1.6 8.0 0.00 0.13 0.13 63 1015.9
20260505204618 18 310 4.8 12.9 0.00 0.13 0.13 63 1015.8
20260505204055 18 267 4.8 11.3 0.00 0.13 0.13 63 1015.8
20260505203534 18 254 1.6 9.7 0.00 0.13 0.13 63 1015.9
20260505203013 18 302 6.4 11.3 0.00 0.13 0.13 62 1016.0
20260505202451 18 218 6.4 17.7 0.00 0.13 0.13 63 1016.0
20260505201931 18 230 4.8 12.9 0.00 0.13 0.13 63 1016.0
20260505201409 18 263 3.2 8.0 0.00 0.13 0.13 65 1016.0
20260505200848 17 300 4.8 9.7 0.00 0.13 0.13 64 1016.1
20260505200327 17 325 4.8 9.7 0.00 0.13 0.13 64 1016.1
20260505195806 18 267 6.4 9.7 0.00 0.13 0.13 64 1016.2
20260505195244 17 260 3.2 9.7 0.00 0.13 0.13 65 1016.2
20260505194723 17 274 3.2 8.0 0.00 0.13 0.13 64 1016.1
20260505194201 17 240 1.6 9.7 0.00 0.13 0.13 64 1016.2
20260505193639 17 220 4.8 11.3 0.00 0.13 0.13 65 1016.3
20260505193117 17 331 4.8 11.3 0.00 0.13 0.13 65 1016.2
20260505192557 17 289 3.2 9.7 0.00 0.13 0.13 68 1016.3
20260505192037 17 260 3.2 9.7 0.00 0.13 0.13 67 1016.3
20260505191517 17 235 1.6 6.4 0.00 0.13 0.13 68 1016.2
20260505190955 17 302 3.2 8.0 0.00 0.13 0.13 68 1016.2
20260505190433 17 223 4.8 9.7 0.00 0.13 0.13 68 1016.2
20260505185203 16 286 1.6 12.9 0.00 0.13 0.13 70 1016.1
20260505184641 16 324 3.2 9.7 0.00 0.13 0.13 70 1016.1
20260505184121 16 243 3.2 8.0 0.00 0.13 0.13 71 1016.1
20260505183600 16 240 3.2 6.4 0.00 0.13 0.13 74 1016.2
20260505183037 16 295 1.6 8.0 0.00 0.13 0.13 75 1016.2
20260505182517 16 234 1.6 6.4 0.00 0.13 0.13 76 1016.3
20260505181955 15 265 1.6 9.7 0.00 0.13 0.13 76 1016.3
20260505181434 15 269 3.2 9.7 0.00 0.13 0.13 77 1016.2
20260505180911 15 289 3.2 11.3 0.00 0.13 0.13 78 1016.2
20260505180351 15 336 3.2 9.7 0.00 0.13 0.13 80 1016.2
20260505175831 15 285 3.2 11.3 0.00 0.13 0.13 82 1016.1
20260505175309 15 295 1.6 6.4 0.00 0.13 0.13 84 1016.1
20260505174749 14 254 1.6 9.7 0.00 0.13 0.13 85 1016.1
20260505174227 14 323 1.6 6.4 0.00 0.13 0.13 86 1016.0
20260505173705 14 258 3.2 8.0 0.00 0.13 0.13 87 1015.8
20260505173144 13 287 3.2 8.0 0.00 0.13 0.13 87 1015.9
20260505171915 13 269 1.6 4.8 0.00 0.13 0.13 88 1015.8
20260505171355 13 272 1.6 1.6 0.00 0.13 0.13 88 1015.8
20260505170835 13 272 1.6 4.8 0.00 0.13 0.13 88 1015.8
20260505165606 13 0 0.0 6.4 0.00 0.13 0.13 88 1015.9
20260505165043 13 0 0.0 4.8 0.00 0.13 0.13 88 1015.8
20260505164521 13 0 0.0 6.4 0.00 0.13 0.13 88 1015.8
20260505164001 13 279 1.6 3.2 0.00 0.13 0.13 88 1015.8
20260505163439 13 282 1.6 4.8 0.00 0.13 0.13 88 1015.8
20260505162211 12 240 1.6 4.8 0.00 0.13 0.13 88 1015.7
20260505160943 12 0 0.0 1.6 0.00 0.13 0.13 89 1015.6
20260505160421 12 240 1.6 3.2 0.00 0.13 0.13 89 1015.6
20260505152134 12 0 0.0 0.0 0.00 0.13 0.13 89 1015.3
20260505151612 12 0 0.0 0.0 0.00 0.13 0.13 89 1015.3
20260505151049 12 0 0.0 0.0 0.00 0.13 0.13 89 1015.2
20260505150527 12 0 0.0 0.0 0.00 0.13 0.13 89 1015.2
20260505124750 11 0 0.0 0.0 0.03 0.13 0.13 88 1014.8
20260505124227 11 0 0.0 0.0 0.03 0.13 0.13 88 1014.8
20260505123705 11 0 0.0 0.0 0.03 0.13 0.13 88 1014.7
20260505123143 11 0 0.0 0.0 0.03 0.13 0.13 88 1014.7
20260505122621 11 0 0.0 0.0 0.03 0.13 0.13 88 1014.7
20260505122101 11 0 0.0 0.0 0.03 0.13 0.13 88 1014.7
20260505121539 11 0 0.0 0.0 0.03 0.13 0.13 88 1014.6
20260505121017 11 0 0.0 0.0 0.03 0.13 0.13 88 1014.6
20260505120455 11 0 0.0 0.0 0.03 0.13 0.13 88 1014.4
20260505115227 11 0 0.0 0.0 0.03 0.13 0.13 88 1014.6
20260505114707 11 0 0.0 0.0 0.00 0.10 0.10 88 1014.6
20260505114147 11 0 0.0 0.0 0.00 0.10 0.10 88 1014.6
20260505113626 11 0 0.0 0.0 0.00 0.10 0.10 88 1014.8
20260505113105 11 0 0.0 0.0 0.00 0.10 0.10 88 1015.0
20260505112544 11 0 0.0 0.0 0.03 0.10 0.10 88 1015.0
20260505112023 11 0 0.0 0.0 0.03 0.10 0.10 87 1015.0
20260505111501 11 0 0.0 0.0 0.03 0.10 0.10 87 1014.9
20260505110941 11 0 0.0 0.0 0.03 0.10 0.10 87 1014.8
20260505110419 11 0 0.0 0.0 0.03 0.10 0.10 87 1014.8
20260505101941 11 0 0.0 0.0 0.00 0.08 0.08 87 1014.7
20260505101419 11 0 0.0 0.0 0.00 0.08 0.08 87 1014.6
20260505100857 11 0 0.0 0.0 0.00 0.08 0.08 87 1014.7
20260505100335 11 0 0.0 1.6 0.00 0.08 0.08 86 1014.8
20260505095813 11 280 1.6 1.6 0.03 0.08 0.08 86 1014.7
20260505095253 11 280 1.6 1.6 0.03 0.08 0.08 86 1014.8
20260505094733 11 0 0.0 0.0 0.03 0.08 0.08 86 1014.9
20260505094211 11 0 0.0 0.0 0.05 0.08 0.08 86 1014.9
20260505093651 11 0 0.0 0.0 0.05 0.08 0.08 86 1015.0
20260505093129 11 0 0.0 0.0 0.05 0.08 0.08 85 1015.0
20260505092607 12 0 0.0 0.0 0.05 0.08 0.08 85 1015.1
20260505092047 12 0 0.0 0.0 0.05 0.08 0.08 85 1015.1
20260505091527 12 0 0.0 0.0 0.05 0.08 0.08 85 1015.2
20260505091007 12 0 0.0 0.0 0.05 0.08 0.08 85 1015.2
20260505090445 12 0 0.0 0.0 0.05 0.08 0.08 85 1015.4
20260505085923 12 0 0.0 0.0 0.03 0.05 0.05 85 1015.4
20260505085403 12 0 0.0 0.0 0.03 0.05 0.05 84 1015.3
20260505084135 12 0 0.0 0.0 0.03 0.03 0.03 84 1015.3
20260505083615 12 0 0.0 0.0 0.03 0.03 0.03 84 1015.4
20260505083053 12 0 0.0 0.0 0.03 0.03 0.03 83 1015.3
20260505082531 12 0 0.0 0.0 0.03 0.03 0.03 83 1015.4
20260505082011 12 0 0.0 0.0 0.03 0.03 0.03 83 1015.3
20260505081449 12 0 0.0 0.0 0.03 0.03 0.03 83 1015.4
20260505080927 12 281 1.6 1.6 0.03 0.03 0.03 82 1015.5
20260505080405 12 281 1.6 3.2 0.03 0.03 0.03 82 1015.6
20260505075135 12 285 1.6 3.2 0.03 0.03 0.03 81 1015.6
20260505074613 12 0 0.0 4.8 0.03 0.03 0.03 81 1015.6
20260505074053 12 334 1.6 6.4 0.00 0.00 0.00 80 1015.7
20260505072823 12 261 1.6 8.0 0.00 0.00 0.00 79 1015.7
20260505072301 12 258 1.6 6.4 0.00 0.00 0.00 79 1015.7
20260505071739 12 284 1.6 9.7 0.00 0.00 0.00 78 1015.7
20260505065802 12 248 3.2 9.7 0.00 0.00 0.00 78 1015.6
20260505065242 12 246 1.6 8.0 0.00 0.00 0.00 78 1015.5
20260505064722 12 256 3.2 6.4 0.00 0.00 0.00 78 1015.4
20260505064200 12 292 3.2 6.4 0.00 0.00 0.00 78 1015.4
20260505062932 12 255 1.6 8.0 0.00 0.00 0.00 76 1015.3
20260505062410 12 247 1.6 6.4 0.00 0.00 0.00 76 1015.3
20260505061142 12 248 3.2 8.0 0.00 0.00 0.00 75 1015.1
20260505060622 12 259 3.2 9.7 0.00 0.00 0.00 75 1015.1
20260505060059 12 267 3.2 8.0 0.00 0.00 0.00 75 1015.0
20260505055538 12 220 3.2 8.0 0.00 0.00 0.00 75 1015.0
20260505055015 12 244 1.6 8.0 0.00 0.00 0.00 75 1015.1
20260505054454 12 251 3.2 8.0 0.00 0.00 0.00 75 1015.1
20260505052516 13 302 3.2 9.7 0.00 0.00 0.00 76 1015.3
20260505051953 13 311 1.6 6.4 0.00 0.00 0.00 75 1015.3
20260505050724 13 305 4.8 9.7 0.00 0.00 0.00 75 1015.5
20260505050201 13 310 3.2 9.7 0.00 0.00 0.00 76 1015.7